Weather History for Burnet, TX

Change the Weather History Date:

Friday, August 3, 2012

  Actual Average Record
Temperature  
Mean Temperature 88 °F -  
Max Temperature 100 °F 93 °F 105 °F (2011)
Min Temperature 75 °F 71 °F 69 °F (2014)
Cooling Degree Days 22    
Growing Degree Days 38 (Base 50)    
Moisture  
Dew Point 63 °F    
Average Humidity 47    
Maximum Humidity 71    
Minimum Humidity 24    
Precipitation  
Precipitation 0.00 in - - ()
Sea Level Pressure  
Sea Level Pressure 29.85 in    
Wind  
Wind Speed 8 mph (South)    
Max Wind Speed 14 mph    
Max Gust Speed 22 mph    
Visibility 10 miles    
Events      
Averages and records for this station are not official NWS values.
T = Trace of Precipitation, MM = Missing Value Source: NWS Daily Summary

Daily Weather History Graph

Daily Weather History Graph

Search for Another Location

Airport:

Trip Planner

Search our weather history database for the weather conditions in past years. The results will help you decide how hot, cold, wet, or windy it might be!

Date:

Astronomy

Aug. 03, 2012 Rise Set
Actual Time 6:52 AM CDT 8:25 PM CDT
Civil Twilight 6:26 AM CDT 8:51 PM CDT
Nautical Twilight 5:54 AM CDT 9:22 PM CDT
Astronomical Twilight 5:22 AM CDT 9:55 PM CDT
Moon 9:18 PM CDT (8/3) 8:25 AM CDT (8/3)
Length of Visible Light 14h 25m
Length of Day
13h 33m
Full, 97% of the Moon is Illuminated
Aug 3
Full
Aug 9
Last Quarter
Aug 17
New
Aug 24
First Quarter
Aug 31
Full

Hourly Weather History & Observations

Time (CDT) Temp. Heat Index Dew Point Humidity Pressure Visibility Wind Dir Wind Speed Gust Speed Precip Events Conditions
12:53 AM 82.9 °F 84.4 °F 64.0 °F 53% 29.85 in 10.0 mi South 6.9 mph - N/A   Clear
2:53 AM 79.0 °F - 64.9 °F 62% 29.83 in 10.0 mi South 8.1 mph - N/A   Clear
3:53 AM 77.0 °F - 62.1 °F 60% 29.82 in 10.0 mi South 9.2 mph - N/A   Clear
4:53 AM 75.9 °F - 62.1 °F 62% 29.83 in 10.0 mi Calm Calm - N/A   Clear
5:53 AM 75.0 °F - 63.0 °F 66% 29.85 in 10.0 mi South 5.8 mph - N/A   Clear
6:53 AM 75.0 °F - 64.0 °F 69% 29.86 in 9.0 mi South 4.6 mph - N/A   Clear
7:53 AM 75.9 °F - 66.0 °F 71% 29.87 in 9.0 mi South 8.1 mph - N/A   Clear
8:53 AM 79.0 °F - 66.9 °F 66% 29.88 in 9.0 mi South 11.5 mph - N/A   Clear
9:53 AM 84.0 °F 86.5 °F 66.9 °F 56% 29.88 in 10.0 mi SSW 11.5 mph - N/A   Clear
10:53 AM 88.0 °F 88.7 °F 63.0 °F 43% 29.89 in 10.0 mi South 11.5 mph 20.7 mph N/A   Clear
12:53 PM 95.0 °F 95.2 °F 61.0 °F 32% 29.88 in 10.0 mi SSE 13.8 mph 20.7 mph N/A   Clear
1:53 PM 98.1 °F 97.7 °F 59.0 °F 27% 29.86 in 10.0 mi SSE 12.7 mph 20.7 mph N/A   Clear
2:53 PM 99.0 °F 97.7 °F 55.9 °F 24% 29.85 in 10.0 mi South 11.5 mph 20.7 mph N/A   Clear
3:53 PM 99.0 °F 98.6 °F 59.0 °F 26% 29.83 in 10.0 mi SSE 9.2 mph 21.9 mph N/A   Clear
4:53 PM 100.0 °F 100.2 °F 59.0 °F 26% 29.81 in 10.0 mi SSE 11.5 mph 18.4 mph N/A   Clear
5:53 PM 100.0 °F 99.7 °F 57.9 °F 25% 29.80 in 10.0 mi South 12.7 mph 21.9 mph N/A   Clear
6:53 PM 97.0 °F 96.9 °F 60.1 °F 29% 29.80 in 10.0 mi South 12.7 mph 18.4 mph N/A   Clear
7:53 PM 95.0 °F 96.0 °F 63.0 °F 34% 29.81 in 10.0 mi SSE 8.1 mph 17.3 mph N/A   Clear
8:53 PM 91.9 °F 92.9 °F 63.0 °F 38% 29.81 in 10.0 mi SSE 6.9 mph - N/A   Clear
9:53 PM 89.1 °F 91.0 °F 64.9 °F 45% 29.85 in 10.0 mi SE 9.2 mph - N/A   Clear
10:53 PM 87.1 °F 88.9 °F 64.9 °F 48% 29.86 in 10.0 mi SSE 11.5 mph 18.4 mph N/A   Clear
11:53 PM 84.0 °F 88.4 °F 70.0 °F 63% 29.88 in 10.0 mi SSE 9.2 mph 19.6 mph N/A   Clear